Location: Unspecified
(42.9300°N, 71.1866°W)
Time: 16:03:28
(UTC-04:00)

ISS - Visible Passes

Search period start: 25 May 2017 00:00
Search period end: 04 June 2017 00:00
Orbit: 402 x 408 km, 51.6° (Epoch: 26 May)

Date Brightness Start Highest point End Pass type
(mag) Time Alt. Az. Time Alt. Az. Time Alt. Az.
25 May -0.9 01:19:49 10° NW 01:22:15 19° N 01:24:42 10° NE visible
25 May -2.8 02:56:07 10° NW 02:59:20 47° NNE 03:02:30 10° ESE visible
25 May -2.7 04:32:59 10° W 04:35:39 23° SW 04:38:18 10° S visible
25 May -3.9 21:12:43 10° SW 21:15:58 64° SE 21:19:14 10° ENE visible
25 May -1.5 22:49:50 10° WNW 22:52:41 26° NNW 22:55:33 10° NE visible
26 May -0.8 00:27:38 10° NW 00:29:58 18° N 00:32:18 10° NE visible
26 May -1.9 02:04:10 10° NW 02:07:10 32° NNE 02:10:10 10° E visible
26 May -3.5 03:40:36 10° WNW 03:43:45 43° SW 03:46:51 10° SSE visible
26 May -2.2 21:57:23 10° W 22:00:29 36° NNW 22:03:35 10° NE visible
26 May -0.8 23:35:17 10° NW 23:37:39 18° N 23:40:00 10° NE visible
27 May -1.4 01:12:11 10° NW 01:14:57 24° NNE 01:17:42 10° ENE visible
27 May -3.7 02:48:27 10° WNW 02:53:57 19° SE 02:55:01 10° SE visible
27 May -3.1 21:05:05 10° WSW 21:08:20 58° NNW 21:11:36 10° NE visible
27 May -1.0 22:42:48 10° WNW 22:45:20 20° N 22:47:51 10° NE visible
28 May -1.1 00:20:09 10° NW 00:22:40 20° N 00:25:01 11° ENE visible
28 May -1.6 01:56:25 10° NW 01:57:35 20° NW 01:57:35 20° NW visible
28 May -1.3 21:50:16 10° WNW 21:53:02 24° NNW 21:55:48 10° NE visible
28 May -0.9 23:27:58 10° NW 23:30:20 18° N 23:32:42 10° NE visible
29 May -1.7 01:04:24 10° NW 01:06:21 27° NNW 01:06:21 27° NNW visible
29 May -1.8 20:57:45 10° W 21:00:46 32° NNW 21:03:47 10° NE visible
29 May -0.9 22:35:39 10° NW 22:37:59 18° N 22:40:19 10° NE visible
30 May -1.7 00:12:24 10° NW 00:15:15 26° NNE 00:15:30 26° NNE visible
30 May -1.0 21:43:10 10° NW 21:45:37 19° N 21:48:05 10° NE visible
30 May -1.3 23:20:20 10° NW 23:22:57 21° NNE 23:24:49 14° NE visible
31 May -1.2 00:56:35 10° NW 00:57:26 17° NW 00:57:26 17° NW visible
31 May -1.2 20:50:36 10° WNW 20:53:16 22° NNW 20:55:57 10° NE visible
31 May -1.1 22:28:11 10° NW 22:30:36 18° N 22:33:00 10° NE visible
01 Jun -2.1 00:04:32 10° NW 00:06:50 34° NNW 00:06:50 34° NNW visible
01 Jun -1.0 21:35:52 10° NW 21:38:12 18° N 21:40:32 10° NE visible
01 Jun -2.1 23:12:29 10° NW 23:15:26 29° NNE 23:16:16 26° NE visible
02 Jun -0.8 00:48:52 10° WNW 00:48:54 10° WNW 00:48:54 10° WNW visible
02 Jun -1.6 22:20:25 10° NW 22:23:07 23° NNE 22:25:45 10° ENE visible
02 Jun -2.0 23:56:40 10° WNW 23:58:22 28° NW 23:58:22 28° NW visible
03 Jun -1.3 21:28:15 10° NW 21:30:44 19° N 21:33:12 10° ENE visible
03 Jun -3.2 23:04:33 10° NW 23:07:47 50° NNE 23:07:53 50° NE visible
